IW5CTE-13 Weather Reports


time (UTC)temp
C
wind
direction
speed
KPH
gust
KPH
rain 1hr
cm
rain 24hr
cm
rain mn
cm
humidity
%
barometer
mb
20260507224734 15 0.0 0.0 0.00 0.00 0.00 68 1014.2
20260507223733 15 0.0 0.0 0.00 0.00 0.00 68 1014.2
20260507222734 16 0.0 0.0 0.00 0.00 0.00 67 1014.2
20260507221734 16 0.0 0.0 0.00 0.00 0.00 65 1014.2
20260507220734 16 0.0 0.0 0.00 0.00 0.00 67 1014.2
20260507215733 16 0.0 0.0 0.00 0.00 0.00 66 1014.2
20260507214733 16 0.0 0.0 0.00 0.00 0.00 64 1014.2
20260507213733 16 0.0 0.0 0.00 0.00 0.00 65 1014.2
20260507212734 16 0.0 0.0 0.00 0.00 0.00 64 1014.1
20260507211734 16 0.0 0.0 0.00 0.00 0.00 63 1014.1
20260507210734 16 0.0 0.0 0.00 0.00 0.00 62 1014.0
20260507205734 16 0.0 0.0 0.00 0.00 0.00 60 1014.1
20260507204733 17 0.0 0.0 0.00 0.00 0.00 58 1013.9
20260507203734 16 0.0 0.0 0.00 0.00 0.00 57 1014.0
20260507202734 17 0.0 0.0 0.00 0.00 0.00 64 1014.0
20260507201734 17 0.0 0.0 0.00 0.00 0.00 65 1013.9
20260507200734 17 0.0 0.0 0.00 0.00 0.00 65 1013.9
20260507195733 17 0.0 0.0 0.00 0.00 0.00 63 1013.9
20260507194734 18 0.0 0.0 0.00 0.00 0.00 57 1013.8
20260507193733 18 0.0 0.0 0.00 0.00 0.00 55 1013.7
20260507192733 18 0.0 0.0 0.00 0.00 0.00 54 1013.7
20260507191734 18 0.0 0.0 0.00 0.00 0.00 51 1013.8
20260507190734 18 0.0 0.0 0.00 0.00 0.00 51 1013.7
20260507185734 19 0.0 0.0 0.00 0.00 0.00 54 1013.7
20260507184734 19 0.0 0.0 0.00 0.00 0.00 56 1013.6
20260507183734 19 0.0 0.0 0.00 0.00 0.00 58 1013.7
20260507182733 19 0.0 0.0 0.00 0.00 0.00 59 1013.6
20260507181733 19 0.0 0.0 0.00 0.00 0.00 61 1013.6
20260507180734 19 0.0 0.0 0.00 0.00 0.00 60 1013.7
20260507175733 20 0.0 0.0 0.00 0.00 0.00 60 1013.6
20260507174734 20 0.0 0.0 0.00 0.00 0.00 58 1013.7
20260507173734 20 0.0 0.0 0.00 0.00 0.00 58 1013.6
20260507172734 20 0.0 0.0 0.00 0.00 0.00 56 1013.6
20260507171733 20 0.0 0.0 0.00 0.00 0.00 55 1013.6
20260507170734 20 0.0 0.0 0.00 0.00 0.00 55 1013.5
20260507165734 20 0.0 0.0 0.00 0.00 0.00 56 1013.5
20260507164734 20 0.0 0.0 0.00 0.00 0.00 56 1013.5
20260507163734 20 0.0 0.0 0.00 0.00 0.00 56 1013.4
20260507162734 21 0.0 0.0 0.00 0.00 0.00 55 1013.3
20260507161734 21 0.0 0.0 0.00 0.00 0.00 54 1013.3
20260507160734 21 0.0 0.0 0.00 0.00 0.00 54 1013.5
20260507155734 21 0.0 0.0 0.00 0.00 0.00 53 1013.5
20260507154734 21 0.0 0.0 0.00 0.00 0.00 55 1013.5
20260507153734 21 0.0 0.0 0.00 0.00 0.00 54 1013.5
20260507152734 21 0.0 0.0 0.00 0.00 0.00 54 1013.4
20260507151734 21 0.0 0.0 0.00 0.00 0.00 55 1013.4
20260507150734 21 0.0 0.0 0.00 0.00 0.00 53 1013.6
20260507145734 21 0.0 0.0 0.00 0.00 0.00 55 1013.5
20260507144734 21 0.0 0.0 0.00 0.00 0.00 53 1013.8
20260507143733 21 0.0 0.0 0.00 0.00 0.00 53 1013.8
20260507142734 21 0.0 0.0 0.00 0.00 0.00 53 1013.9
20260507141734 22 0.0 0.0 0.00 0.00 0.00 53 1013.9
20260507140734 22 0.0 0.0 0.00 0.00 0.00 53 1014.0
20260507135733 22 0.0 0.0 0.00 0.00 0.00 52 1014.0
20260507134734 22 0.0 0.0 0.00 0.00 0.00 50 1014.1
20260507133734 22 0.0 0.0 0.00 0.00 0.00 50 1014.3
20260507132734 22 0.0 0.0 0.00 0.00 0.00 49 1014.5
20260507131736 22 0.0 0.0 0.00 0.00 0.00 50 1014.5
20260507130733 22 0.0 0.0 0.00 0.00 0.00 49 1014.7
20260507125733 22 0.0 0.0 0.00 0.00 0.00 48 1014.9
20260507124734 23 0.0 0.0 0.00 0.00 0.00 48 1014.8
20260507123733 23 0.0 0.0 0.00 0.00 0.00 47 1014.8
20260507122734 23 0.0 0.0 0.00 0.00 0.00 45 1014.7
20260507121734 23 0.0 0.0 0.00 0.00 0.00 44 1014.7
20260507120733 23 0.0 0.0 0.00 0.00 0.00 45 1014.7
20260507115734 23 0.0 0.0 0.00 0.00 0.00 45 1014.7
20260507114734 23 0.0 0.0 0.00 0.00 0.00 45 1014.7
20260507113733 25 0.0 0.0 0.00 0.00 0.00 42 1014.8
20260507112734 25 0.0 0.0 0.00 0.00 0.00 43 1014.9
20260507111735 24 0.0 0.0 0.00 0.00 0.00 45 1015.1
20260507110734 24 0.0 0.0 0.00 0.00 0.00 42 1015.1
20260507105733 23 0.0 0.0 0.00 0.00 0.00 45 1015.2
20260507104733 23 0.0 0.0 0.00 0.00 0.00 44 1015.2
20260507103734 23 0.0 0.0 0.00 0.00 0.00 46 1015.3
20260507102733 23 0.0 0.0 0.00 0.00 0.00 47 1015.4
20260507101734 23 0.0 0.0 0.00 0.00 0.00 49 1015.3
20260507100734 22 0.0 0.0 0.00 0.00 0.00 48 1015.5
20260507095734 23 0.0 0.0 0.00 0.00 0.00 45 1015.4
20260507094734 24 0.0 0.0 0.00 0.00 0.00 44 1015.3
20260507093733 24 0.0 0.0 0.00 0.00 0.00 47 1015.2
20260507092734 22 0.0 0.0 0.00 0.00 0.00 51 1015.2
20260507091733 22 0.0 0.0 0.00 0.00 0.00 51 1015.2
20260507090733 21 0.0 0.0 0.00 0.00 0.00 58 1015.1
20260507085733 22 0.0 0.0 0.00 0.00 0.00 56 1015.2
20260507084734 22 0.0 0.0 0.00 0.00 0.00 58 1015.1
20260507083734 23 0.0 0.0 0.00 0.00 0.00 52 1015.2
20260507082733 24 0.0 0.0 0.00 0.00 0.00 54 1015.2
20260507081733 23 0.0 0.0 0.00 0.00 0.00 61 1015.3
20260507080734 23 0.0 0.0 0.00 0.00 0.00 61 1015.2
20260507075747 23 0.0 0.0 0.00 0.00 0.00 62 1015.4
20260507074738 23 0.0 0.0 0.00 0.00 0.00 63 1015.4
20260507073734 22 0.0 0.0 0.00 0.00 0.00 66 1015.5
20260507072734 22 0.0 0.0 0.00 0.00 0.00 68 1015.6
20260507071734 21 0.0 0.0 0.00 0.00 0.00 72 1015.6
20260507070734 21 0.0 0.0 0.00 0.00 0.00 79 1015.5
20260507065734 20 0.0 0.0 0.00 0.00 0.00 82 1015.5
20260507064733 20 0.0 0.0 0.00 0.00 0.00 89 1015.4
20260507063734 18 0.0 0.0 0.00 0.00 0.00 96 1015.4
20260507062734 17 0.0 0.0 0.00 0.00 0.00 10 1015.4
20260507061733 16 0.0 0.0 0.00 0.00 0.00 10 1015.3
20260507060734 15 0.0 0.0 0.00 0.00 0.00 10 1015.3
20260507055733 15 0.0 0.0 0.00 0.00 0.00 10 1015.3
20260507054734 14 0.0 0.0 0.00 0.00 0.00 10 1015.1
20260507053733 14 0.0 0.0 0.00 0.00 0.00 10 1015.1
20260507052734 14 0.0 0.0 0.00 0.00 0.00 10 1015.0
20260507051734 13 0.0 0.0 0.00 0.00 0.00 10 1014.9
20260507050734 13 0.0 0.0 0.00 0.00 0.00 10 1014.9
20260507045734 13 0.0 0.0 0.00 0.00 0.00 10 1014.7
20260507044734 13 0.0 0.0 0.00 0.00 0.00 10 1014.7
20260507043733 13 0.0 0.0 0.00 0.00 0.00 10 1014.6
20260507042734 13 0.0 0.0 0.00 0.00 0.00 10 1014.6
20260507041734 13 0.0 0.0 0.00 0.00 0.00 10 1014.6
20260507040734 13 0.0 0.0 0.00 0.00 0.00 10 1014.5
20260507035733 13 0.0 0.0 0.00 0.00 0.00 10 1014.5
20260507034734 13 0.0 0.0 0.00 0.00 0.00 10 1014.4
20260507033733 13 0.0 0.0 0.00 0.00 0.00 10 1014.3
20260507032733 13 0.0 0.0 0.00 0.00 0.00 10 1014.4
20260507031733 13 0.0 0.0 0.00 0.00 0.00 10 1014.4
20260507030733 13 0.0 0.0 0.00 0.00 0.00 10 1014.5
20260507025734 13 0.0 0.0 0.00 0.00 0.00 10 1014.5
20260507024734 13 0.0 0.0 0.00 0.00 0.00 10 1014.4
20260507023733 13 0.0 0.0 0.00 0.00 0.00 10 1014.4
20260507022734 13 0.0 0.0 0.00 0.00 0.00 10 1014.3
20260507021734 13 0.0 0.0 0.00 0.00 0.00 10 1014.4
20260507020734 14 0.0 0.0 0.00 0.00 0.00 10 1014.3
20260507015734 14 0.0 0.0 0.00 0.00 0.00 10 1014.3
20260507014733 14 0.0 0.0 0.00 0.00 0.00 10 1014.2
20260507013733 14 0.0 0.0 0.00 0.00 0.00 10 1014.1
20260507012733 14 0.0 0.0 0.00 0.00 0.00 10 1014.1
20260507011733 14 0.0 0.0 0.00 0.00 0.00 10 1014.2
20260507010734 14 0.0 0.0 0.00 0.00 0.00 10 1014.1
20260507005733 15 0.0 0.0 0.00 0.00 0.00 10 1014.1
20260507004733 14 0.0 0.0 0.00 0.00 0.00 10 1014.3
20260507003733 14 0.0 0.0 0.00 0.00 0.00 10 1014.3
20260507002733 14 0.0 0.0 0.00 0.00 0.00 10 1014.2
20260507001734 14 0.0 0.0 0.00 0.00 0.00 10 1014.3
20260507000733 15 0.0 0.0 0.00 0.00 0.00 10 1014.2
20260506235733 15 0.0 0.0 0.00 0.00 0.00 10 1014.2
20260506234733 15 0.0 0.0 0.00 0.00 0.00 10 1014.2
20260506233734 16 0.0 0.0 0.00 0.00 0.00 10 1014.1
20260506232734 16 0.0 0.0 0.00 0.00 0.00 10 1014.4
20260506231733 16 0.0 0.0 0.00 0.00 0.00 10 1014.2
20260506230737 17 0.0 0.0 0.00 0.00 0.00 10 1014.0
20260506225734 17 0.0 0.0 0.00 0.00 0.00 10 1013.9